Voltar ao catálogo

STARLINK-35145

AtivoComunicaçõesVLEO
NORAD 65685·PAYLOAD·🇺🇸 United States

Lançado Sep 21, 2025 de Cape Canaveral Space Force Station

Loading…

Próximas Passagens (próximas 24 horas)

TLE

AtualizadoSource: CelesTrak SupGP

Época: Sep 14, 2026, 15:17 UTC

1 65685C 25212K   26257.63729167  .00059799  00000+0  17676-2 0  2579
2 65685  53.1577 184.8589 0001284 101.8271  20.9711 15.34346567    13

Acompanhe STARLINK-35145 em tempo real com AllMySat

Download on the App Store